Home > Time Zones > World Clock > Weather > Belgium > Spa > Past weeks

Flag for Belgium Weather past 2 weeks in Spa, Belgium

Now
62 °F

Clear.


Feels Like: 62 °F
Forecast: 53 / 76 °F
Wind: 2 mph from Southwest

Location: Spa / La Sauveniere

Current Time: Aug 1, 2014 at 12:45:08 AM

Latest Report: Aug 1, 2014 at 12:00 AM


Visibility: 28 mi

Pressure: 29.95 "Hg

Humidity: 74%

Dew point: 53 °F

Location of SpaLocation

Historic Weather in Spa — Graph

°F

Spa temperature yesterday

Maximum temperature yesterday: 74 °F (at 6:00 PM)
Minimum temperature yesterday: 50 °F (at 6:00 AM)
Average temperature yesterday: 62 °F

Past Weeks' High & Low Weather Summary

 TemperatureHumidityPressure
High87 °F (Jul 18, 6:00 PM)100% (Jul 21, 5:00 AM)30.21 "Hg (Jul 21, 5:00 AM)
Low50 °F (Jul 31, 6:00 AM)32% (Jul 18, 4:00 PM)29.80 "Hg (Jul 19, 9:00 PM)
Average66 °F76%29.96 "Hg
* Reported Jul 16 11:00 PM — Jul 31 11:00 PM, Spa, Weather by CustomWeather, © 2014

Note: Actual official high and low records may vary slightly from our data, if they occured in-between our weather recording intervals... More about our weather records

Advertising

Spa weather history for previous 24 hours

 ConditionsComfort  
Time TempWeatherWind HumidityBarometerVisibility
11:00 PM
Jul 31
60 °FClear.1 mph86%29.96 "Hg22 mi
10:00 PM62 °FClear.1 mph79%29.96 "Hg28 mi
9:00 PM65 °FOvercast.1 mph76%29.95 "Hg25 mi
8:00 PM71 °FPassing clouds.1 mph58%29.93 "Hg19 mi
7:00 PM69 °FSunny.1 mph55%29.93 "Hg25 mi
6:00 PM74 °FSunny.2 mph42%29.93 "Hg22 mi
5:00 PM72 °FSunny.2 mph47%29.95 "Hg22 mi
4:00 PM72 °FScattered clouds.2 mph49%29.96 "Hg22 mi
3:00 PM71 °FScattered clouds.N/A50%29.97 "Hg19 mi
2:00 PM69 °FSunny.N/A51%29.99 "Hg18 mi
1:00 PM68 °FSunny.3 mph57%30.00 "Hg19 mi
12:00 PM65 °FSunny.3 mph63%30.01 "Hg19 mi
11:00 AM62 °FSunny.5 mph71%30.03 "Hg16 mi
10:00 AM58 °FSunny.5 mph84%30.04 "HgN/A
9:00 AM56 °FSunny.3 mph89%30.05 "HgN/A
8:00 AM54 °FSunny.5 mph93%30.05 "HgN/A
7:00 AM51 °FFog.2 mph96%30.06 "Hg2 mi
6:00 AM50 °FFog.2 mph96%30.05 "Hg2 mi
5:00 AM50 °FClear.1 mph96%30.05 "HgN/A
4:00 AM52 °FClear.1 mph95%30.05 "HgN/A
3:00 AM54 °FClear.1 mph94%30.05 "HgN/A
2:00 AM56 °FPassing clouds.1 mph94%30.04 "Hg6 mi
1:00 AM58 °FPassing clouds.1 mph92%30.03 "Hg7 mi
12:00 AM58 °FPassing clouds.2 mph88%30.03 "Hg9 mi
Weather by CustomWeather, © 2014

See weather overviewHow to use our weather pages